This is the latest recevied weather packets stored in our database for station/object G4GVZ-1. If no packets are shown the sender has not sent any weather packets the latest 10 day(s).
| Time | Temp. | Humidity | Pressure | Rain* | Wind** | Luminosity | Snow |
|---|---|---|---|---|---|---|---|
| 1777551352 | 20.56° C | 35% | 1019.3 hPa | 0 mm | - | - | - |
| 1777550452 | 20.56° C | 37% | 1019.3 hPa | 0 mm | - | - | - |
| 1777550023 | 20° C | 37% | 1019.7 hPa | 0 mm | - | - | - |
| 1777549551 | 20° C | 37% | 1019.7 hPa | 0 mm | - | - | - |
| 1777548651 | 20° C | 39% | 1019.6 hPa | 0 mm | - | - | - |
| 1777547751 | 19.44° C | 40% | 1019.7 hPa | 0 mm | - | - | - |
| 1777546851 | 19.44° C | 41% | 1019.9 hPa | 0 mm | - | - | - |
| 1777545948 | 18.89° C | 45% | 1020 hPa | 0 mm | - | - | - |
| 1777545048 | 18.33° C | 45% | 1020 hPa | 0 mm | - | - | - |
| 1777544148 | 18.33° C | 46% | 1020.2 hPa | 0 mm | - | - | - |
| 1777543248 | 17.78° C | 48% | 1020.4 hPa | 0 mm | - | - | - |
| 1777542347 | 17.22° C | 52% | 1020.3 hPa | 0 mm | - | - | - |
| 1777541449 | 16.67° C | 52% | 1020.5 hPa | 0 mm | - | - | - |
| 1777540549 | 16.11° C | 54% | 1020.7 hPa | 0 mm | - | - | - |
| 1777539649 | 15.56° C | 54% | 1020.8 hPa | 0 mm | - | - | - |
| 1777538749 | 15° C | 54% | 1020.9 hPa | 0 mm | - | - | - |
| 1777537849 | 15° C | 55% | 1021 hPa | 0 mm | - | - | - |
| 1777536948 | 14.44° C | 55% | 1021.1 hPa | 0 mm | - | - | - |
| 1777536048 | 14.44° C | 55% | 1021 hPa | 0 mm | - | - | - |
| 1777535148 | 13.89° C | 56% | 1021 hPa | 0 mm | - | - | - |
| 1777534248 | 13.33° C | 58% | 1021.1 hPa | 0 mm | - | - | - |
| 1777533348 | 12.78° C | 59% | 1021.1 hPa | 0 mm | - | - | - |
| 1777532447 | 12.22° C | 61% | 1021.3 hPa | 0 mm | - | - | - |
| 1777531550 | 11.67° C | 63% | 1021.2 hPa | 0 mm | - | - | - |
| 1777530650 | 11.11° C | 66% | 1021.3 hPa | 0 mm | - | - | - |
* Rain latest hour (hover to see other rain measurements)
** Current wind speed in m/s (hover to see current wind gust speed)